Location: Saluda
(35.2377°N, 82.3468°W)
Time: 21:59:29
(UTC+00:00)

Tiros 1 - Pass Details

Date: 09 October 2022
Orbit: 629 x 662 km, 48.4° (Epoch: 08 December)

Event Time Altitude Azimuth Distance (km) Brightness Sun altitude
Rises 00:23:17 0° 191° (S) 2,961 10.6 -17.1°
Reaches altitude 10° 00:26:15 10° 172° (S) 2,059 9.6 -17.7°
Enters shadow 00:27:59 16° 152° (SSE) 1,703 9.0 -18.1°
